DAL6540 PHKO-PHOG

Flight info

Callsign DAL6540
Flight time 0h 18m
Altitude 14000
Route KOA V1 HARPO CAMPS4
Aircraft A319/M-SDE3FGHIRWY/LB1

Departure

Time 2026-04-24 21:50
Airport Ellison Onizuka Kona International Airport at Keāhole (PHKO)

Arrival

Time 2026-04-24 22:09
Airport Kahului International Airport (PHOG)
Time Latitude Longitude Altitude Speed Heading
2026-04-24 21:26 19.73638 -156.04222 48 ft 0 kts 93°
2026-04-24 21:39 19.73639 -156.04237 47 ft 4 kts 91°
2026-04-24 21:40 19.73639 -156.04254 46 ft 3 kts 89°
2026-04-24 21:40 19.73639 -156.04255 46 ft 2 kts 89°
2026-04-24 21:40 19.73638 -156.04265 45 ft 1 kts 86°
2026-04-24 21:40 19.73639 -156.04274 45 ft 3 kts 96°
2026-04-24 21:41 19.73642 -156.04309 42 ft 5 kts 111°
2026-04-24 21:41 19.73664 -156.04327 43 ft 3 kts 172°
2026-04-24 21:41 19.73677 -156.04328 45 ft 0 kts 182°
2026-04-24 21:48 19.73659 -156.04329 42 ft 10 kts 182°
2026-04-24 21:48 19.73487 -156.04347 46 ft 33 kts 186°
2026-04-24 21:48 19.73249 -156.04364 51 ft 36 kts 186°
2026-04-24 21:48 19.72990 -156.04391 49 ft 39 kts 183°
2026-04-24 21:49 19.72722 -156.04413 49 ft 40 kts 181°
2026-04-24 21:49 19.72437 -156.04442 45 ft 38 kts 187°
2026-04-24 21:49 19.72306 -156.04540 46 ft 13 kts 277°
2026-04-24 21:49 19.72368 -156.04617 46 ft 0 kts 289°
2026-04-24 21:50 19.72419 -156.04695 47 ft 19 kts 354°
2026-04-24 21:50 19.72821 -156.04661 44 ft 112 kts
2026-04-24 21:50 19.74285 -156.04513 340 ft 194 kts
2026-04-24 21:50 19.75273 -156.04427 757 ft 223 kts
2026-04-24 21:51 19.76898 -156.04251 1843 ft 252 kts
2026-04-24 21:51 19.78696 -156.04270 3460 ft 261 kts 346°
2026-04-24 21:51 19.80340 -156.05067 4974 ft 266 kts 324°
2026-04-24 21:51 19.81581 -156.06530 6207 ft 273 kts 298°
2026-04-24 21:52 19.82573 -156.08262 7543 ft 275 kts 306°
2026-04-24 21:52 19.83769 -156.09865 8833 ft 279 kts 309°
2026-04-24 21:52 19.85029 -156.11445 10083 ft 283 kts 310°
2026-04-24 21:52 19.86349 -156.13078 10914 ft 302 kts 311°
2026-04-24 21:53 19.87769 -156.14838 11519 ft 325 kts 311°
2026-04-24 21:53 19.89278 -156.16719 12297 ft 339 kts 311°
2026-04-24 21:53 19.90813 -156.18643 13210 ft 344 kts 311°
2026-04-24 21:53 19.92349 -156.20572 13676 ft 348 kts 311°
2026-04-24 21:54 19.93909 -156.22531 13890 ft 347 kts 311°
2026-04-24 21:54 19.95470 -156.24485 13974 ft 347 kts 313°
2026-04-24 21:54 19.97124 -156.26347 13984 ft 347 kts 317°
2026-04-24 21:54 19.98895 -156.28070 13980 ft 346 kts 321°
2026-04-24 21:55 20.00758 -156.29686 13980 ft 344 kts 322°
2026-04-24 21:55 20.02612 -156.31290 13979 ft 344 kts 322°
2026-04-24 21:55 20.04456 -156.32894 13986 ft 343 kts 322°
2026-04-24 21:55 20.06310 -156.34507 13984 ft 343 kts 322°
2026-04-24 21:56 20.08151 -156.36111 13985 ft 341 kts 322°
2026-04-24 21:56 20.09962 -156.37688 13984 ft 340 kts 322°
2026-04-24 21:56 20.11795 -156.39283 13982 ft 342 kts 322°
2026-04-24 21:56 20.13742 -156.40729 13987 ft 343 kts 333°
2026-04-24 21:57 20.15972 -156.41604 13990 ft 344 kts 347°
2026-04-24 21:57 20.18354 -156.41847 13991 ft 344 kts 359°
2026-04-24 21:57 20.20744 -156.41867 13991 ft 342 kts 358°
2026-04-24 21:57 20.23129 -156.41896 13991 ft 343 kts 358°
2026-04-24 21:58 20.25512 -156.41930 13991 ft 344 kts 358°
2026-04-24 21:58 20.27918 -156.41961 13982 ft 344 kts 359°
2026-04-24 21:58 20.30288 -156.41965 13744 ft 340 kts 359°
2026-04-24 21:58 20.32615 -156.41956 13220 ft 338 kts 359°
2026-04-24 21:59 20.34965 -156.41947 12602 ft 336 kts 359°
2026-04-24 21:59 20.37306 -156.41941 11971 ft 335 kts 359°
2026-04-24 21:59 20.39616 -156.41937 11512 ft 328 kts 359°
2026-04-24 21:59 20.41850 -156.41933 11369 ft 313 kts 359°
2026-04-24 22:00 20.43976 -156.41931 11239 ft 298 kts 359°
2026-04-24 22:00 20.45998 -156.41928 11074 ft 282 kts 359°
2026-04-24 22:00 20.47929 -156.41925 10634 ft 275 kts 359°
2026-04-24 22:00 20.49814 -156.41924 10085 ft 273 kts 359°
2026-04-24 22:01 20.51714 -156.41931 9465 ft 273 kts 359°
2026-04-24 22:01 20.53598 -156.41941 8882 ft 271 kts 359°
2026-04-24 22:01 20.55505 -156.41952 8294 ft 269 kts 359°
2026-04-24 22:01 20.57308 -156.42251 7718 ft 267 kts 337°
2026-04-24 22:02 20.58834 -156.43349 7135 ft 265 kts 314°
2026-04-24 22:02 20.60037 -156.44828 6580 ft 265 kts 309°
2026-04-24 22:02 20.61192 -156.46361 6005 ft 263 kts 309°
2026-04-24 22:02 20.62326 -156.47885 5467 ft 262 kts 309°
2026-04-24 22:03 20.63460 -156.49397 4922 ft 260 kts 310°
2026-04-24 22:03 20.64588 -156.50884 4384 ft 259 kts 311°
2026-04-24 22:03 20.65699 -156.52336 4119 ft 259 kts 311°
2026-04-24 22:03 20.66844 -156.53826 4009 ft 255 kts 311°
2026-04-24 22:04 20.67932 -156.55247 4005 ft 236 kts 312°
2026-04-24 22:04 20.69118 -156.56343 4000 ft 223 kts 337°
2026-04-24 22:04 20.70498 -156.56695 4001 ft 220 kts
2026-04-24 22:04 20.71945 -156.56313 4005 ft 215 kts 31°
2026-04-24 22:05 20.73181 -156.55406 3994 ft 215 kts 38°
2026-04-24 22:05 20.74363 -156.54442 3998 ft 213 kts 38°
2026-04-24 22:05 20.75560 -156.53498 3996 ft 215 kts 36°
2026-04-24 22:05 20.76756 -156.52601 3942 ft 204 kts 35°
2026-04-24 22:06 20.77886 -156.51786 3874 ft 185 kts 35°
2026-04-24 22:06 20.78881 -156.51083 3591 ft 165 kts 34°
2026-04-24 22:06 20.79823 -156.50400 3069 ft 164 kts 35°
2026-04-24 22:06 20.80749 -156.49681 2566 ft 165 kts 35°
2026-04-24 22:07 20.81680 -156.48984 2051 ft 163 kts 33°
2026-04-24 22:07 20.82589 -156.48357 1769 ft 148 kts 34°
2026-04-24 22:07 20.83424 -156.47707 1540 ft 150 kts 35°
2026-04-24 22:07 20.84286 -156.47052 1451 ft 158 kts 32°
2026-04-24 22:08 20.85225 -156.46402 1299 ft 160 kts 35°
2026-04-24 22:08 20.86115 -156.45712 1031 ft 162 kts 37°
2026-04-24 22:08 20.87013 -156.45013 789 ft 158 kts 31°
2026-04-24 22:08 20.87917 -156.44354 429 ft 153 kts 33°
2026-04-24 22:09 20.88777 -156.43733 114 ft 139 kts 33°
2026-04-24 22:09 20.89468 -156.43223 50 ft 101 kts 35°
2026-04-24 22:09 20.89813 -156.42966 37 ft 28 kts 35°
2026-04-24 22:09 20.89968 -156.42884 32 ft 18 kts 338°
2026-04-24 22:10 20.90014 -156.42955 32 ft 18 kts 270°
2026-04-24 22:10 20.89972 -156.43004 33 ft 20 kts 219°
2026-04-24 22:10 20.89842 -156.43104 38 ft 26 kts 215°
2026-04-24 22:10 20.89684 -156.43220 43 ft 29 kts 215°
2026-04-24 22:11 20.89510 -156.43352 48 ft 32 kts 215°
2026-04-24 22:11 20.89327 -156.43487 52 ft 34 kts 214°
2026-04-24 22:11 20.89226 -156.43562 53 ft 17 kts 214°
2026-04-24 22:11 20.89194 -156.43605 55 ft 12 kts 270°
2026-04-24 22:12 20.89227 -156.43665 50 ft 1 kts 307°
2026-04-24 22:12 20.89251 -156.43700 50 ft 0 kts 306°
2026-04-24 22:12 20.89253 -156.43704 50 ft 0 kts 305°